Ludington, MI

4:30 AM EDT on August 19, 2019 (GMT -0400)
Mason County

Weather History for KLDM - May, 2019

Change the Weather History Date:

Friday, May 10, 2019

  Actual Average Record
Temperature  
Mean Temperature 44 °F -  
Max Temperature 52 °F 66 °F 83 °F (1993)
Min Temperature 35 °F 39 °F 22 °F (1966)
Degree Days  
Heating Degree Days 21    
Moisture  
Dew Point 34 °F    
Average Humidity 74    
Maximum Humidity 92    
Minimum Humidity 43    
Precipitation  
Precipitation 0.00 in - - ()
Sea Level Pressure  
Sea Level Pressure 30.05 in    
Wind  
Wind Speed 7 mph (NNW)    
Max Wind Speed 16 mph    
Max Gust Speed 24 mph    
Visibility 10 miles    
Events      
Averages and records for this station are not official NWS values.
T = Trace of Precipitation, MM = Missing Value Source: NWS Daily Summary

Daily Weather History Graph

Daily Weather History Graph

Search for Another Location

Airport or City:

Astronomy

May. 10, 2019 Rise Set
Actual Time 6:25 AM EDT 8:59 PM EDT
Civil Twilight 5:52 AM EDT 9:31 PM EDT
Nautical Twilight 5:12 AM EDT 10:13 PM EDT
Astronomical Twilight 4:25 AM EDT 10:59 PM EDT
Moon 11:22 AM EDT (5/10) 1:54 AM EDT (5/10)
Length of Visible Light 15h 38m
Length of Day
14h 33m
Waxing Crescent, 35% of the Moon is Illuminated
May 10
Waxing Crescent
May 11
First Quarter
May 18
Full
May 26
Last Quarter
Jun 3
New

Hourly Weather History & Observations

Time (EDT) Temp. Windchill Dew Point Humidity Pressure Visibility Wind Dir Wind Speed Gust Speed Precip Events Conditions
12:15 AM 41.0 °F 35.2 °F 38.7 °F 91% 29.87 in 10.0 mi North 9.2 mph - N/A   Overcast
12:35 AM 40.8 °F 35.0 °F 37.8 °F 89% 29.88 in 10.0 mi North 9.2 mph - N/A   Overcast
12:55 AM 40.5 °F 35.1 °F 37.9 °F 91% 29.89 in 10.0 mi North 8.1 mph - N/A   Overcast
12:56 AM 40.5 °F 35.1 °F 37.9 °F 91% 29.89 in 10.0 mi North 8.1 mph - N/A   Overcast
1:15 AM 40.5 °F 34.6 °F 37.4 °F 89% 29.90 in 10.0 mi North 9.2 mph - N/A   Overcast
1:16 AM 40.3 °F 34.4 °F 37.4 °F 89% 29.90 in 10.0 mi North 9.2 mph - N/A   Overcast
1:35 AM 40.3 °F 37.1 °F 37.4 °F 89% 29.90 in 10.0 mi North 4.6 mph - N/A   Overcast
1:55 AM 40.3 °F 37.1 °F 37.4 °F 89% 29.90 in 10.0 mi North 4.6 mph - N/A   Overcast
2:15 AM 40.1 °F 36.9 °F 37.4 °F 90% 29.90 in 10.0 mi North 4.6 mph - N/A   Overcast
2:16 AM 40.1 °F 38.0 °F 37.4 °F 90% 29.90 in 10.0 mi North 3.5 mph - N/A   Overcast
2:35 AM 40.1 °F 36.9 °F 37.2 °F 89% 29.90 in 10.0 mi NNW 4.6 mph - N/A   Overcast
2:36 AM 40.1 °F 36.1 °F 37.4 °F 90% 29.90 in 10.0 mi NNW 5.8 mph - N/A   Overcast
2:55 AM 40.1 °F 38.0 °F 37.4 °F 90% 29.91 in 10.0 mi NNW 3.5 mph - N/A   Overcast
3:15 AM 40.1 °F 36.1 °F 37.4 °F 90% 29.90 in 10.0 mi North 5.8 mph - N/A   Overcast
3:35 AM 40.1 °F 35.3 °F 36.0 °F 85% 29.91 in 10.0 mi North 6.9 mph - N/A   Overcast
3:36 AM 40.1 °F 35.3 °F 35.8 °F 85% 29.91 in 10.0 mi North 6.9 mph - N/A   Overcast
3:55 AM 39.6 °F 35.4 °F 35.8 °F 86% 29.92 in 10.0 mi North 5.8 mph - N/A   Overcast
3:56 AM 39.7 °F 36.5 °F 35.6 °F 85% 29.92 in 10.0 mi North 4.6 mph - N/A   Overcast
4:15 AM 39.7 °F 37.6 °F 35.6 °F 85% 29.92 in 10.0 mi NNW 3.5 mph - N/A   Overcast
4:16 AM 39.7 °F 36.5 °F 35.6 °F 85% 29.92 in 10.0 mi NNW 4.6 mph - N/A   Overcast
4:35 AM 40.1 °F 36.1 °F 36.0 °F 85% 29.93 in 10.0 mi NNW 5.8 mph - N/A   Overcast
4:36 AM 40.1 °F 35.3 °F 35.8 °F 85% 29.93 in 10.0 mi NNW 6.9 mph - N/A   Overcast
4:55 AM 40.1 °F 34.7 °F 35.6 °F 84% 29.94 in 10.0 mi NW 8.1 mph - N/A   Overcast
5:15 AM 39.6 °F 35.4 °F 35.2 °F 85% 29.95 in 10.0 mi NNW 5.8 mph - N/A   Overcast
5:16 AM 39.6 °F 36.3 °F 35.1 °F 84% 29.95 in 10.0 mi NNW 4.6 mph - N/A   Overcast
5:35 AM 39.4 °F 34.5 °F 34.9 °F 84% 29.95 in 10.0 mi NNW 6.9 mph - N/A   Overcast
5:36 AM 39.4 °F 35.2 °F 34.9 °F 84% 29.95 in 10.0 mi NNW 5.8 mph - N/A   Overcast
5:55 AM 39.2 °F 33.0 °F 34.7 °F 84% 29.96 in 10.0 mi NNW 9.2 mph - N/A   Overcast
6:15 AM 39.2 °F 33.6 °F 34.3 °F 83% 29.96 in 10.0 mi NNW 8.1 mph - N/A   Overcast
6:35 AM 39.2 °F 34.2 °F 33.6 °F 80% 29.97 in 10.0 mi NNW 6.9 mph - N/A   Overcast
6:55 AM 39.2 °F 35.0 °F 34.0 °F 82% 29.97 in 10.0 mi NNW 5.8 mph - N/A   Overcast
6:56 AM 39.2 °F 35.9 °F 34.0 °F 82% 29.97 in 10.0 mi NNW 4.6 mph - N/A   Overcast
7:15 AM 39.2 °F 34.2 °F 34.7 °F 84% 29.97 in 10.0 mi NNW 6.9 mph - N/A   Overcast
7:16 AM 39.2 °F 35.0 °F 34.7 °F 84% 29.97 in 10.0 mi NNW 5.8 mph - N/A   Overcast
7:35 AM 39.2 °F 33.6 °F 34.7 °F 84% 29.97 in 10.0 mi NNW 8.1 mph - N/A   Overcast
7:55 AM 39.2 °F 34.2 °F 34.3 °F 83% 29.99 in 10.0 mi NNW 6.9 mph - N/A   Overcast
8:15 AM 39.2 °F 31.2 °F 34.0 °F 82% 29.99 in 10.0 mi NNW 13.8 mph 19.6 mph N/A   Overcast
8:16 AM 39.2 °F 31.2 °F 34.0 °F 82% 29.99 in 10.0 mi NNW 13.8 mph 19.6 mph N/A   Overcast
8:35 AM 39.4 °F 33.2 °F 33.6 °F 80% 30.02 in 10.0 mi NW 9.2 mph - N/A   Overcast
8:36 AM 39.4 °F 33.8 °F 33.8 °F 80% 30.02 in 10.0 mi NW 8.1 mph - N/A   Overcast
8:55 AM 39.4 °F 32.3 °F 32.9 °F 78% 30.01 in 10.0 mi North 11.5 mph 19.6 mph N/A   Overcast
9:15 AM 39.6 °F 35.4 °F 33.6 °F 79% 30.03 in 10.0 mi North 5.8 mph - N/A   Overcast
9:35 AM 39.6 °F 34.7 °F 32.9 °F 77% 30.07 in 10.0 mi North 6.9 mph - N/A   Overcast
9:36 AM 39.6 °F 34.7 °F 32.9 °F 77% 30.07 in 10.0 mi North 6.9 mph - N/A   Overcast
9:55 AM 40.1 °F 34.1 °F 32.9 °F 75% 30.08 in 10.0 mi NW 9.2 mph - N/A   Overcast
9:56 AM 40.1 °F 34.1 °F 32.9 °F 75% 30.08 in 10.0 mi NW 9.2 mph - N/A   Overcast
10:15 AM 41.2 °F 35.5 °F 32.4 °F 71% 30.08 in 10.0 mi NNW 9.2 mph - N/A   Mostly Cloudy
10:35 AM 40.3 °F 33.4 °F 32.9 °F 75% 30.08 in 10.0 mi NNW 11.5 mph 17.3 mph N/A   Mostly Cloudy
10:55 AM 41.5 °F 35.9 °F 32.9 °F 71% 30.09 in 10.0 mi North 9.2 mph 19.6 mph N/A   Overcast
10:56 AM 41.5 °F 35.0 °F 32.7 °F 71% 30.09 in 10.0 mi North 11.5 mph 19.6 mph N/A   Overcast
11:15 AM 40.6 °F 34.8 °F 32.5 °F 73% 30.10 in 10.0 mi NNW 9.2 mph 20.7 mph N/A   Overcast
11:16 AM 40.6 °F 33.8 °F 32.5 °F 73% 30.10 in 10.0 mi NNW 11.5 mph 18.4 mph N/A   Overcast
11:35 AM 42.4 °F 36.1 °F 33.8 °F 71% 30.09 in 10.0 mi NNW 11.5 mph 20.7 mph N/A   Overcast
11:36 AM 42.8 °F 35.4 °F 34.0 °F 71% 30.09 in 10.0 mi NNW 15.0 mph 24.2 mph N/A   Overcast
11:55 AM 41.5 °F 33.8 °F 32.2 °F 69% 30.10 in 10.0 mi NW 15.0 mph 20.7 mph N/A   Overcast
12:15 PM 42.8 °F 37.0 °F 33.6 °F 70% 30.12 in 10.0 mi NNW 10.4 mph - N/A   Overcast
12:35 PM 44.1 °F 37.4 °F 33.1 °F 65% 30.12 in 10.0 mi NNW 13.8 mph 19.6 mph N/A   Mostly Cloudy
12:36 PM 44.1 °F 36.8 °F 33.3 °F 66% 30.12 in 10.0 mi NW 16.1 mph 20.7 mph N/A   Mostly Cloudy
12:55 PM 43.5 °F 37.9 °F 32.5 °F 65% 30.14 in 10.0 mi NW 10.4 mph 18.4 mph N/A   Overcast
12:56 PM 43.5 °F 37.9 °F 32.7 °F 66% 30.13 in 10.0 mi NW 10.4 mph 18.4 mph N/A   Overcast
1:15 PM 44.2 °F 38.0 °F 33.1 °F 65% 30.12 in 10.0 mi North 12.7 mph 19.6 mph N/A   Overcast
1:35 PM 44.6 °F 37.8 °F 32.7 °F 63% 30.11 in 10.0 mi NNW 15.0 mph 24.2 mph N/A   Mostly Cloudy
1:55 PM 44.6 °F 38.4 °F 32.5 °F 63% 30.12 in 10.0 mi North 12.7 mph 24.2 mph N/A   Mostly Cloudy
2:15 PM 45.1 °F 38.8 °F 33.4 °F 64% 30.12 in 10.0 mi North 13.8 mph 19.6 mph N/A   Overcast
2:16 PM 45.3 °F 40.1 °F 33.6 °F 64% 30.12 in 10.0 mi North 10.4 mph 19.6 mph N/A   Overcast
2:35 PM 45.5 °F 39.6 °F 33.4 °F 63% 30.12 in 10.0 mi NNE 12.7 mph 19.6 mph N/A   Mostly Cloudy
2:36 PM 45.5 °F 38.9 °F 33.1 °F 62% 30.12 in 10.0 mi North 15.0 mph 19.6 mph N/A   Mostly Cloudy
2:55 PM 45.7 °F 41.0 °F 32.9 °F 61% 30.12 in 10.0 mi North 9.2 mph 17.3 mph N/A   Scattered Clouds
3:15 PM 47.1 °F - 33.4 °F 59% 30.13 in 10.0 mi NNW 11.5 mph 17.3 mph N/A   Scattered Clouds
3:35 PM 47.5 °F - 33.1 °F 57% 30.12 in 10.0 mi North 9.2 mph 17.3 mph N/A   Scattered Clouds
3:55 PM 48.7 °F - 33.4 °F 56% 30.12 in 10.0 mi North 9.2 mph - N/A   Scattered Clouds
4:15 PM 48.2 °F - 32.4 °F 54% 30.12 in 10.0 mi NNE 5.8 mph 19.6 mph N/A   Scattered Clouds
4:16 PM 48.0 °F - 32.2 °F 54% 30.11 in 10.0 mi NE 4.6 mph 19.6 mph N/A   Scattered Clouds
4:35 PM 49.3 °F - 32.4 °F 52% 30.12 in 10.0 mi North 8.1 mph 17.3 mph N/A   Scattered Clouds
4:36 PM 49.3 °F - 32.5 °F 53% 30.12 in 10.0 mi North 8.1 mph 17.3 mph N/A   Scattered Clouds
4:55 PM 50.5 °F - 34.2 °F 53% 30.12 in 10.0 mi North 9.2 mph - N/A   Clear
5:15 PM 50.9 °F - 33.4 °F 51% 30.12 in 10.0 mi NNW 9.2 mph 17.3 mph N/A   Clear
5:35 PM 50.9 °F - 32.5 °F 49% 30.13 in 10.0 mi NNW 9.2 mph - N/A   Clear
5:36 PM 50.9 °F - 32.5 °F 49% 30.13 in 10.0 mi North 10.4 mph - N/A   Clear
5:55 PM 51.6 °F - 32.0 °F 47% 30.13 in 10.0 mi North 9.2 mph - N/A   Clear
5:56 PM 51.4 °F - 31.8 °F 47% 30.13 in 10.0 mi North 8.1 mph - N/A   Clear
6:15 PM 51.8 °F - 31.1 °F 45% 30.14 in 10.0 mi NNW 8.1 mph - N/A   Clear
6:35 PM 52.2 °F - 31.6 °F 46% 30.14 in 10.0 mi North 10.4 mph - N/A   Clear
6:55 PM 51.8 °F - 29.7 °F 43% 30.13 in 10.0 mi NNE 5.8 mph - N/A   Clear
7:15 PM 51.4 °F - 30.0 °F 44% 30.14 in 10.0 mi NNE 3.5 mph - N/A   Clear
7:35 PM 51.3 °F - 30.2 °F 44% 30.14 in 10.0 mi NE 5.8 mph - N/A   Clear
7:55 PM 49.8 °F - 32.2 °F 51% 30.14 in 10.0 mi SW 4.6 mph - N/A   Clear
7:56 PM 49.1 °F - 33.1 °F 54% 30.14 in 10.0 mi WSW 5.8 mph - N/A   Clear
8:15 PM 45.5 °F 44.2 °F 33.4 °F 63% 30.14 in 10.0 mi West 3.5 mph - N/A   Clear
8:16 PM 45.3 °F - 33.4 °F 63% 30.14 in 10.0 mi Calm Calm - N/A   Clear
8:35 PM 43.7 °F - 32.9 °F 66% 30.15 in 10.0 mi Calm Calm - N/A   Clear
8:55 PM 41.7 °F 38.8 °F 34.0 °F 74% 30.15 in 10.0 mi WSW 4.6 mph - N/A   Clear
9:15 PM 40.5 °F 38.4 °F 34.9 °F 80% 30.16 in 10.0 mi West 3.5 mph - N/A   Clear
9:16 PM 40.5 °F - 34.9 °F 80% 30.16 in 10.0 mi Calm Calm - N/A   Clear
9:35 PM 39.7 °F - 34.9 °F 83% 30.17 in 10.0 mi Calm Calm - N/A   Clear
9:36 PM 39.7 °F - 34.9 °F 83% 30.17 in 10.0 mi Calm Calm - N/A   Clear
9:55 PM 38.7 °F - 34.7 °F 86% 30.16 in 10.0 mi Calm Calm - N/A   Clear
10:15 PM 39.2 °F - 35.1 °F 85% 30.16 in 10.0 mi Calm Calm - N/A   Clear
10:35 PM 38.3 °F - 34.7 °F 87% 30.17 in 10.0 mi Calm Calm - N/A   Clear
10:36 PM 38.3 °F 35.9 °F 34.7 °F 87% 30.17 in 10.0 mi West 3.5 mph - N/A   Clear
10:55 PM 38.3 °F - 34.9 °F 87% 30.17 in 10.0 mi Calm Calm - N/A   Scattered Clouds
10:56 PM 38.3 °F - 34.9 °F 87% 30.17 in 10.0 mi Calm Calm - N/A   Scattered Clouds
11:15 PM 38.3 °F 35.9 °F 34.3 °F 86% 30.18 in 10.0 mi WSW 3.5 mph - N/A   Scattered Clouds
11:35 PM 36.3 °F - 33.6 °F 90% 30.18 in 10.0 mi Calm Calm - N/A   Clear
11:55 PM 35.8 °F - 33.6 °F 92% 30.17 in 10.0 mi Calm Calm - N/A   Clear